Wind_Speed
15 15 15 15 16 14 12 12 11 10 10 9 9 9 8 8 7 7 6 6 5 5 6 6 8 9 9 9 10 11 11 11 11 11 10 9 9 9 9 9 8 8 8 7 8 8 7 7 6
16 15 15 15 17 13 12 12 11 11 10 10 9 9 8 7 7 7 6 6 5 5 6 7 8 8 8 9 10 11 11 11 11 11 10 9 9 8 9 9 8 8 8 8 7 8 8 6 6
16 16 16 17 15 14 13 13 12 12 12 11 10 9 8 6 5 5 6 6 5 5 6 7 8 8 8 8 9 10 11 11 11 11 10 9 9 8 8 8 8 8 8 7 7 7 7 6 5
16 16 17 17 15 15 14 14 13 14 14 13 12 10 9 7 6 5 4 5 5 5 6 7 8 8 8 8 9 10 11 12 11 10 10 10 8 7 8 8 8 8 7 7 6 7 6 6 5
16 16 17 16 15 15 14 14 15 15 14 14 13 12 11 9 7 6 4 4 4 5 7 7 7 8 7 8 9 10 11 11 11 10 10 9 8 7 8 7 8 7 6 6 5 6 5 5 4
16 17 16 15 15 15 15 15 15 15 14 14 14 13 12 11 9 7 5 5 5 6 6 7 7 7 6 7 8 10 10 10 10 10 10 9 9 7 7 8 7 7 6 5 5 5 5 4 3
15 16 15 15 15 15 14 14 14 14 14 13 13 13 13 12 10 8 6 5 5 5 6 6 6 7 7 7 8 10 10 10 10 10 10 9 8 7 7 7 7 7 7 6 5 4 4 4 3
14 16 14 14 14 14 14 14 14 14 14 13 13 14 13 12 12 10 8 6 6 5 5 5 5 7 7 7 9 10 10 10 11 10 9 8 8 7 7 7 7 6 6 6 6 5 4 4 4
12 15 13 13 14 14 13 14 14 14 14 14 14 14 13 12 13 11 10 8 7 6 6 5 5 6 6 8 9 9 10 10 11 10 9 8 8 8 8 7 7 6 6 7 6 5 4 4 4
11 13 13 13 13 13 13 13 13 13 14 14 14 13 13 12 12 11 10 9 8 6 6 5 5 5 6 7 8 9 9 10 11 10 9 8 7 7 8 8 7 7 7 7 7 6 5 4 4
9 10 11 12 13 13 13 13 13 13 13 13 13 13 12 12 12 11 11 10 8 7 6 5 5 5 6 7 8 9 8 9 9 8 8 8 7 7 8 8 7 7 7 7 7 6 6 5 5
7 7 8 10 11 12 12 12 11 12 12 11 11 12 12 12 12 11 11 10 9 8 7 6 5 5 5 5 7 8 9 8 8 7 7 7 7 7 8 7 7 7 8 7 6 6 6 5 5
4 4 5 6 8 10 10 10 9 10 10 10 11 11 11 12 12 11 10 9 9 8 7 6 4 4 3 4 6 6 7 7 8 7 6 7 7 7 7 7 7 7 8 7 6 6 6 5 6
2 2 2 3 5 6 8 8 7 8 8 9 10 10 10 10 10 10 9 8 7 7 6 5 4 3 2 2 4 5 5 7 7 7 7 6 6 7 7 7 7 7 7 7 7 7 7 6 6
1 0 0 1 2 4 5 6 6 6 7 8 9 9 9 9 9 8 8 7 7 6 5 4 3 2 1 1 3 4 5 6 7 7 6 6 6 7 7 8 8 8 7 7 6 6 6 7 7
3 2 2 2 1 1 3 4 4 5 5 6 7 7 7 8 8 7 7 6 5 4 3 3 2 2 1 1 3 4 5 6 6 5 5 5 6 7 8 8 8 8 8 8 8 7 7 7 7
4 4 5 4 3 2 1 2 3 4 4 4 5 6 6 6 6 6 7 6 6 5 4 3 3 2 2 2 3 4 6 6 6 5 5 5 6 7 8 8 9 9 9 9 9 8 8 8 8
7 7 7 7 6 4 3 3 3 4 4 4 4 5 6 6 7 6 6 6 6 5 5 4 3 3 2 2 3 4 5 6 6 6 5 5 6 8 8 8 9 9 10 9 9 9 9 8 9
10 8 8 9 8 7 6 5 5 6 6 5 5 5 5 6 7 7 7 7 7 6 6 5 5 4 3 2 3 4 4 5 7 7 7 7 7 8 8 9 9 9 10 10 10 10 10 10 10
11 10 10 10 10 9 8 8 8 8 8 8 8 8 7 7 8 8 7 7 7 7 6 6 6 5 5 3 3 4 4 5 7 7 7 8 8 8 9 9 9 10 11 11 11 11 11 11 11
11 11 12 13 12 12 11 11 11 10 10 9 10 10 10 9 9 8 7 7 8 8 7 7 7 7 6 6 4 4 5 6 7 7 8 9 9 9 9 10 10 10 10 10 11 12 11 11 12
13 13 13 14 13 13 12 12 13 12 11 11 11 12 12 11 11 10 9 9 9 9 8 8 8 7 7 7 7 6 6 6 7 8 9 10 10 10 10 10 10 10 11 11 12 11 11 12 12
14 14 15 15 15 15 15 14 14 14 13 12 12 12 12 12 12 11 10 10 10 9 9 9 9 8 7 8 8 7 7 7 7 8 8 9 9 10 10 11 11 11 12 12 12 12 13 13 12
15 15 15 15 15 16 15 15 15 16 14 13 13 13 13 14 14 13 12 11 11 11 10 10 9 8 8 8 9 9 8 9 8 8 9 9 10 11 11 11 12 13 13 13 13 14 14 14 14
16 15 14 14 14 16 16 16 17 16 15 14 14 14 14 14 15 15 13 12 11 11 11 11 10 9 9 9 10 10 10 10 9 9 10 11 12 13 13 13 13 14 14 15 15 14 15 16 17
17 16 15 15 14 15 17 16 16 15 15 15 15 15 15 14 14 15 15 14 12 12 12 12 11 11 10 10 10 11 11 11 11 11 12 13 13 14 14 15 15 15 16 16 16 17 17 18 18
19 18 17 17 16 15 16 16 15 14 14 14 15 15 16 14 14 14 14 14 14 13 13 12 12 12 12 13 13 12 12 12 13 14 14 14 14 15 16 16 17 17 17 18 18 18 19 19 20
20 19 19 17 16 15 16 16 15 15 15 15 15 15 15 15 14 15 15 14 14 14 15 15 14 14 15 15 15 14 14 14 15 16 17 17 16 16 17 17 18 19 19 20 21 21 21 21 21
22 21 20 19 18 16 15 16 16 16 15 15 15 15 15 14 14 14 15 15 15 16 16 16 16 17 17 17 17 17 17 17 18 18 19 19 19 19 19 19 20 20 20 22 23 23 23 22 22
23 22 21 20 20 19 17 17 18 16 16 16 16 16 16 16 15 15 15 16 16 17 17 18 18 19 19 19 19 19 20 20 20 20 20 21 21 21 21 21 22 22 23 24 24 24 23 24 24
Wind_Direction
83 83 83 83 81 78 84 88 89 90 92 91 93 95 94 92 90 85 81 88 92 109 117 120 130 138 143 149 156 159 160 159 156 153 153 148 147 147 148 147 144 143 141 136 137 135 132 130 125
82 82 81 81 80 81 81 85 85 85 86 87 89 89 89 89 89 86 85 90 92 107 119 127 134 140 145 152 163 166 165 164 160 156 153 152 151 153 148 149 148 147 148 141 138 141 138 132 129
82 81 80 80 82 83 84 83 82 82 81 81 81 82 84 84 85 81 84 93 97 112 124 131 141 147 150 156 165 170 170 171 166 163 158 156 155 156 156 150 151 147 145 143 141 144 142 136 129
82 82 80 80 80 81 81 81 79 76 74 74 73 73 73 68 66 72 86 101 108 117 130 136 147 149 152 160 169 173 173 174 172 168 162 162 163 163 160 159 157 156 149 145 150 154 151 140 130
83 82 78 77 76 77 80 79 76 75 72 70 68 66 64 58 57 65 83 104 117 125 132 135 139 148 155 160 168 175 176 179 179 173 168 165 167 164 158 154 161 159 157 158 162 159 154 146 138
85 82 80 78 74 74 75 74 72 72 71 68 66 63 59 55 55 62 78 110 129 135 140 136 141 151 159 164 173 174 176 181 181 172 167 164 166 164 159 152 159 161 165 167 168 167 168 161 161
87 86 80 76 73 72 72 71 70 70 68 64 63 59 55 53 55 59 71 100 125 134 140 145 150 153 152 160 169 173 173 180 181 174 170 165 168 171 170 165 164 167 170 174 174 172 178 183 184
90 86 77 75 74 72 70 69 69 69 67 65 63 57 55 55 55 59 71 86 106 122 140 151 160 160 160 164 173 172 174 179 180 177 172 169 172 172 174 173 173 177 180 179 174 176 194 196 202
91 83 82 82 77 73 70 69 68 67 66 64 61 59 56 57 58 60 70 81 93 110 132 142 157 162 166 170 174 175 176 179 181 176 175 175 179 181 180 178 179 184 186 188 189 191 199 205 209
87 86 85 83 79 73 69 70 69 68 65 62 60 60 57 56 60 63 71 79 87 101 122 132 151 170 173 168 170 173 175 181 181 178 179 181 184 188 183 184 186 189 194 197 200 207 215 217 215
86 90 83 80 76 72 70 69 68 67 63 59 59 58 57 55 56 62 69 75 86 96 110 120 131 153 164 166 172 175 173 174 176 178 181 186 188 193 192 192 194 196 199 205 218 216 220 220 221
91 90 84 78 74 71 70 70 70 67 61 55 56 58 56 52 54 61 67 71 80 92 103 113 123 129 139 161 171 176 179 177 176 179 187 189 190 194 201 199 199 201 202 205 218 216 216 215 215
104 95 84 78 70 69 69 72 71 65 58 52 50 53 54 53 52 56 59 64 73 77 81 91 105 119 127 157 173 174 180 178 182 182 182 184 187 193 201 200 199 201 203 205 213 217 214 207 215
122 98 88 70 62 61 63 68 69 62 54 53 49 47 48 50 48 49 53 56 66 69 70 75 80 80 106 169 176 172 174 177 182 185 186 186 188 193 200 199 201 204 204 205 213 219 218 219 224
176 168 342 22 51 57 58 58 57 51 49 48 46 42 39 40 42 42 43 46 52 57 60 64 63 72 77 155 172 180 182 182 183 190 196 196 195 202 203 202 207 206 204 215 219 227 229 224 221
219 243 287 282 294 27 45 39 22 38 35 32 35 34 29 27 30 31 29 30 32 33 35 40 45 37 12 172 182 194 190 184 187 188 197 206 209 211 210 212 216 218 222 228 232 235 239 236 230
238 237 255 269 268 284 340 11 345 3 3 8 15 20 17 9 8 12 12 12 9 11 9 9 359 343 309 220 197 198 200 196 198 199 207 211 215 218 222 221 223 225 227 232 239 237 241 245 249
237 236 248 258 269 277 289 299 301 318 328 337 342 355 3 358 359 358 353 356 356 353 359 358 347 328 315 239 213 215 214 207 210 216 222 227 223 224 229 229 228 232 233 238 242 243 247 250 251
240 243 252 261 265 272 277 279 287 294 296 304 313 318 336 339 342 343 342 343 347 348 345 340 331 324 308 268 230 227 222 222 228 229 234 240 241 237 236 235 236 238 240 244 248 250 253 253 252
249 250 256 263 267 272 275 278 281 285 281 281 291 299 308 313 320 326 328 328 331 334 333 327 322 316 300 285 247 229 228 234 240 245 248 250 252 246 241 239 244 245 248 251 253 255 255 257 257
250 252 254 262 271 276 276 279 280 278 275 276 281 287 295 299 302 308 314 313 314 319 322 319 314 305 292 281 260 250 240 237 242 248 254 258 257 249 246 247 252 253 255 255 258 261 257 259 259
252 255 258 264 270 273 275 274 278 275 273 273 275 279 287 291 293 294 298 301 302 305 307 309 308 300 289 277 270 257 257 255 256 260 264 266 261 258 256 256 260 264 259 259 260 259 261 262 262
249 256 262 266 269 270 273 272 274 273 271 268 270 273 278 282 286 285 287 288 291 292 298 303 303 294 287 280 270 259 262 261 267 269 271 267 263 264 261 262 266 264 264 264 261 261 264 266 267
255 259 264 267 269 270 271 272 272 274 270 267 269 273 275 275 277 277 278 281 286 289 292 298 299 288 291 289 284 275 267 268 270 273 275 275 275 273 271 270 269 265 266 267 267 264 264 266 267
256 259 266 271 271 273 273 272 273 274 268 266 268 270 274 274 272 270 270 275 281 284 287 290 295 290 292 292 285 280 274 272 273 276 277 279 280 277 275 274 271 269 267 267 268 267 268 271 266
254 253 256 262 268 275 277 274 276 273 269 268 269 269 271 271 270 266 263 266 273 279 283 283 287 288 288 290 287 282 280 276 277 281 281 281 280 279 277 275 272 273 272 270 270 271 272 273 271
253 253 255 259 265 266 270 276 277 273 273 270 271 272 273 271 269 262 260 264 268 271 275 279 283 287 287 289 287 289 284 285 285 282 283 283 281 280 279 279 274 272 273 271 269 270 271 271 270
252 255 256 257 262 266 272 276 274 274 272 272 273 271 273 272 268 262 260 263 267 270 272 275 282 286 285 285 284 283 285 288 290 287 283 282 283 281 279 279 277 272 271 272 273 271 270 269 268
253 253 253 254 255 262 268 271 273 273 271 270 271 270 267 266 265 264 262 263 266 269 271 274 278 281 282 283 282 281 282 286 288 287 284 284 282 281 280 279 278 277 275 272 273 274 273 272 270
253 252 253 254 258 260 260 267 271 269 270 267 266 266 264 262 262 262 260 261 265 268 270 273 277 279 279 279 279 281 281 283 284 285 284 283 282 282 281 280 278 279 279 278 277 275 274 275 272
Height
5898 5898 5898 5898 5898 5899 5898 5897 5895 5894 5894 5893 5892 5891 5891 5891 5891 5893 5890 5887 5887 5886 5886 5886 5886 5887 5888 5889 5890 5892 5893 5894 5895 5896 5897 5898 5898 5899 5900 5901 5902 5902 5903 5904 5905 5906 5907 5907 5908
5900 5900 5900 5900 5901 5901 5900 5898 5897 5896 5895 5894 5893 5892 5892 5891 5891 5890 5889 5888 5888 5887 5887 5887 5888 5889 5889 5890 5891 5892 5893 5894 5896 5897 5897 5898 5899 5899 5900 5901 5902 5903 5904 5904 5905 5906 5907 5908 5909
5902 5902 5903 5902 5903 5902 5901 5900 5898 5897 5896 5895 5894 5893 5893 5892 5891 5890 5889 5888 5888 5888 5888 5888 5889 5889 5890 5891 5892 5893 5894 5895 5896 5897 5898 5898 5899 5900 5901 5901 5902 5903 5904 5905 5906 5907 5908 5909 5910
5905 5905 5905 5906 5905 5904 5902 5901 5899 5898 5897 5896 5895 5895 5893 5892 5891 5890 5889 5888 5888 5888 5888 5888 5889 5890 5891 5891 5892 5893 5894 5895 5896 5897 5898 5899 5900 5901 5901 5902 5903 5904 5905 5906 5907 5908 5908 5909 5910
5907 5907 5909 5909 5907 5906 5904 5903 5901 5900 5899 5898 5897 5896 5894 5893 5892 5890 5889 5889 5889 5889 5889 5889 5890 5891 5891 5892 5893 5894 5894 5896 5897 5898 5899 5899 5900 5901 5902 5902 5903 5904 5905 5906 5907 5908 5909 5910 5910
5910 5910 5912 5911 5910 5908 5907 5904 5903 5901 5900 5899 5898 5897 5896 5894 5892 5891 5889 5889 5889 5889 5890 5890 5891 5891 5892 5892 5893 5894 5895 5896 5897 5898 5899 5900 5901 5902 5902 5903 5904 5905 5906 5907 5908 5908 5909 5910 5910
5913 5913 5914 5913 5912 5910 5909 5907 5905 5903 5902 5901 5900 5898 5897 5895 5893 5892 5890 5889 5889 5889 5890 5891 5891 5892 5893 5893 5894 5894 5896 5897 5898 5898 5899 5900 5901 5902 5903 5904 5905 5905 5906 5907 5908 5908 5909 5910 5910
5915 5916 5916 5915 5913 5912 5910 5908 5907 5905 5904 5903 5902 5900 5899 5897 5895 5893 5891 5890 5890 5890 5891 5891 5892 5892 5893 5893 5894 5895 5896 5897 5898 5899 5899 5901 5901 5902 5903 5904 5905 5906 5906 5907 5908 5909 5909 5909 5910
5917 5919 5918 5916 5915 5914 5912 5910 5909 5907 5906 5904 5903 5902 5901 5898 5897 5895 5893 5892 5891 5891 5892 5892 5892 5893 5893 5894 5895 5895 5896 5897 5898 5899 5900 5901 5902 5902 5903 5904 5905 5906 5907 5907 5908 5908 5909 5909 5910
5919 5920 5919 5918 5916 5915 5913 5912 5911 5909 5908 5906 5905 5904 5902 5900 5898 5897 5895 5894 5893 5893 5893 5893 5893 5894 5894 5895 5895 5896 5896 5897 5898 5899 5900 5901 5902 5902 5903 5904 5905 5906 5906 5907 5907 5908 5908 5909 5909
5920 5921 5920 5919 5917 5916 5915 5914 5912 5911 5910 5908 5907 5906 5904 5902 5900 5899 5897 5896 5895 5894 5894 5894 5894 5894 5895 5895 5896 5896 5897 5897 5898 5898 5899 5900 5901 5902 5903 5904 5904 5905 5906 5906 5907 5907 5907 5908 5909
5922 5922 5921 5920 5919 5917 5916 5915 5914 5913 5912 5910 5908 5907 5905 5904 5902 5901 5899 5898 5897 5896 5896 5895 5895 5895 5895 5896 5896 5896 5897 5897 5898 5898 5899 5900 5901 5902 5903 5904 5904 5905 5905 5906 5906 5906 5907 5908 5908
5923 5922 5922 5921 5920 5919 5918 5917 5915 5914 5913 5911 5910 5908 5907 5905 5904 5903 5901 5900 5899 5898 5897 5896 5896 5896 5896 5896 5896 5897 5897 5898 5898 5899 5900 5900 5901 5902 5903 5904 5904 5904 5905 5906 5906 5906 5907 5907 5907
5923 5923 5922 5922 5921 5920 5919 5918 5917 5915 5914 5913 5911 5910 5908 5907 5905 5904 5903 5901 5900 5900 5899 5898 5897 5897 5896 5896 5896 5897 5897 5897 5898 5899 5900 5901 5901 5902 5903 5904 5904 5905 5905 5906 5906 5906 5907 5907 5907
5923 5923 5923 5922 5922 5921 5920 5920 5918 5916 5915 5914 5912 5911 5910 5908 5907 5905 5904 5903 5902 5901 5900 5899 5898 5897 5897 5897 5897 5897 5897 5898 5899 5899 5900 5900 5901 5902 5903 5903 5904 5904 5905 5905 5906 5906 5906 5906 5906
5923 5924 5924 5923 5922 5921 5922 5921 5919 5917 5916 5915 5913 5912 5911 5910 5908 5906 5905 5904 5902 5901 5900 5899 5898 5898 5897 5896 5896 5897 5897 5898 5898 5899 5900 5900 5900 5901 5902 5903 5904 5904 5904 5905 5905 5905 5906 5906 5906
5923 5924 5923 5923 5922 5921 5921 5921 5919 5918 5917 5915 5914 5913 5912 5910 5909 5907 5906 5904 5903 5902 5900 5899 5899 5898 5897 5896 5896 5896 5897 5898 5898 5899 5899 5899 5900 5900 5901 5902 5903 5903 5904 5904 5904 5904 5905 5905 5905
5922 5922 5922 5921 5921 5920 5920 5920 5919 5918 5917 5916 5914 5913 5912 5911 5910 5908 5906 5905 5903 5902 5901 5899 5899 5898 5897 5896 5896 5896 5897 5897 5897 5898 5899 5899 5899 5899 5900 5900 5901 5902 5902 5903 5903 5903 5903 5904 5904
5919 5920 5920 5920 5919 5919 5919 5919 5918 5917 5916 5915 5914 5913 5912 5911 5910 5908 5907 5905 5904 5902 5901 5900 5898 5898 5897 5897 5896 5896 5896 5897 5897 5897 5898 5898 5898 5898 5899 5899 5900 5900 5901 5901 5902 5902 5902 5902 5902
5916 5917 5918 5918 5917 5917 5917 5917 5917 5916 5915 5914 5913 5913 5912 5911 5909 5908 5906 5905 5904 5902 5901 5899 5898 5897 5897 5896 5896 5896 5896 5896 5896 5896 5896 5896 5897 5897 5897 5898 5898 5899 5899 5899 5900 5900 5900 5900 5901
5914 5915 5915 5915 5915 5915 5915 5915 5915 5914 5913 5913 5912 5911 5910 5909 5908 5907 5906 5904 5903 5902 5900 5899 5898 5897 5896 5895 5895 5895 5895 5895 5896 5895 5895 5895 5895 5895 5895 5896 5897 5897 5897 5898 5898 5898 5898 5898 5898
5911 5911 5912 5912 5912 5913 5913 5914 5913 5911 5911 5910 5910 5909 5908 5907 5906 5905 5904 5903 5902 5901 5899 5898 5896 5895 5894 5894 5894 5894 5894 5894 5894 5894 5894 5894 5893 5893 5894 5894 5895 5895 5895 5896 5896 5896 5896 5896 5896
5907 5908 5908 5909 5909 5910 5910 5910 5911 5908 5908 5908 5907 5907 5906 5905 5904 5903 5902 5901 5900 5899 5898 5896 5894 5893 5893 5893 5893 5892 5893 5893 5892 5892 5892 5892 5892 5892 5892 5892 5893 5893 5893 5893 5893 5893 5894 5894 5893
5903 5904 5905 5905 5906 5907 5906 5907 5907 5905 5905 5904 5904 5904 5903 5902 5901 5901 5900 5899 5898 5897 5896 5895 5893 5892 5891 5891 5891 5891 5891 5891 5891 5891 5890 5890 5890 5890 5890 5890 5890 5890 5890 5890 5891 5891 5891 5891 5891
5900 5902 5903 5903 5904 5904 5903 5902 5902 5901 5901 5901 5901 5900 5900 5899 5898 5898 5897 5897 5896 5895 5894 5893 5892 5892 5891 5890 5890 5890 5889 5889 5889 5888 5888 5888 5887 5887 5887 5887 5887 5887 5887 5887 5887 5887 5887 5887 5887
5895 5898 5901 5902 5902 5902 5898 5897 5898 5897 5896 5896 5896 5896 5896 5895 5894 5894 5894 5894 5894 5893 5892 5892 5891 5890 5890 5889 5888 5888 5887 5887 5887 5886 5886 5885 5885 5884 5884 5883 5883 5883 5883 5883 5883 5883 5883 5883 5883
5891 5892 5895 5896 5896 5896 5896 5894 5893 5893 5892 5892 5892 5892 5892 5891 5891 5891 5891 5891 5891 5890 5890 5889 5889 5888 5888 5887 5887 5886 5885 5885 5884 5884 5883 5882 5881 5881 5880 5880 5880 5879 5879 5879 5879 5879 5879 5878 5878
5886 5887 5889 5891 5891 5892 5892 5890 5890 5889 5888 5889 5888 5888 5888 5887 5887 5887 5887 5887 5887 5887 5887 5886 5886 5886 5885 5884 5884 5883 5883 5882 5881 5880 5879 5879 5878 5877 5877 5876 5875 5875 5874 5874 5874 5874 5873 5873 5873
5881 5882 5883 5885 5886 5887 5889 5890 5885 5884 5884 5884 5884 5884 5883 5883 5883 5883 5883 5884 5884 5883 5883 5883 5883 5883 5882 5881 5880 5880 5879 5879 5878 5877 5876 5875 5874 5873 5872 5872 5871 5870 5870 5869 5868 5868 5867 5867 5866
5874 5876 5877 5879 5879 5880 5883 5886 5880 5880 5880 5880 5879 5879 5879 5879 5879 5879 5879 5879 5879 5879 5879 5879 5879 5878 5878 5877 5876 5876 5875 5874 5874 5873 5872 5871 5870 5868 5867 5867 5866 5865 5864 5863 5863 5862 5861 5860 5860